MIDAS 3 DEB, 25793

Orbit data source: Space-Track

MIDAS 3 DEB, 25793 is space debris in LEO originally from a launch on Wed, 12 Jul 1961 UTC launched from the Air Force Western Test Range (AFWTR). Debris objects in space refer to the collection of defunct objects orbiting the Earth. Examples of debris include non-operational satellites, rocket bodies, and fragments generated from explosions, collisions, or faulty payload assembly.

Loading next visibility...
Identifier
25793, 1961-018F
Orbit
LEO
Country
Flag of USUS
Related business
Manufacturer
Unknown
Mission
Spacecraft
Bus & Motor
Unknown
Mass
Unknown
Launch date (UTC)
1961-07-12 (64 years ago)
Launch vehicle
Unknown
Launch site
Air Force Western Test Range (AFWTR)
Object type
Payload
Rocket body
Debris
Shape & HBR
Unknown shape, 1.1 m
Radar Cross Section
Medium (>0.1 m² and <1 m²)

Expand to show TLE details & history
Last TLE update: 2 weeks ago

TLE from 2 weeks ago
0 MIDAS 3 DEB
1 25793U 61018F   25333.62900234 -.00000017  00000-0 -62660-2 0  9996
2 25793  91.1437 210.4303 0128641 296.1831  62.5863  8.93208403384134
Epoch: 2025-11-29T15:05Z
TLE epoch observation values (Epoch: 2025-11-29T15:05:45.802Z)
Latitude
-0°
Longitude
-84.76501°
Altitude
3,379.479 km
Speed
6.411 km/s
True Right ascension
14h 01m 43s
True Declination
0° 00' 00"
Sunlit
Object was in daylight at epoch
Visualization orbit readout
Latitude
Unknown
Longitude
Unknown
Altitude
Unknown
Speed
Unknown
Apparent Right ascension
Unknown
Apparent Declination
Unknown
Sunlit
N/A
Visualization observer readout
Local Sidereal Time
13:26:09
Azimuth
Unknown
Elevation
Unknown
Doppler factor
Unknown
Orbital elements
Apogee altitude
3,558.029 km
Perigee altitude
3,305.637 km
Semi-major axis
9,809.97 km
Eccentricity
0.01286
Inclination
91.1437°
RAAN
210.4303°
Arg. of periapsis
296.1831°
True anomaly
63.90452°
Mean anomaly
62.5863°
Eccentric anomaly
63.24445°
Mean motion
2.23379 °/min
Orbital period
161.16 mins
BSTAR
-0.006266
Loading maneuver chart data...
Computing Atmospheric mass density...
Loading historical data...
Loading historical data...
Loading historical data...
Loading historical data...
Loading historical data...
Loading historical data...
Loading historical data...
Other satellites on launch #18 in the year 1961 (1961-07-12 UTC)

Documentation

Showing up to 5 results
|